Time,TemperatureF,DewpointF,PressureIn,WindDirection,WindDirectionDegrees,WindSpeedMPH,WindSpeedGustMPH,Humidity,HourlyPrecipIn,Conditions,Clouds,dailyrainin,SoftwareType,DateUTC
2013-07-07 00:03:00,50.0,-99.9,-100.00,WNW,285,0.0,0.0,-999,-99.99,,,-99.99,,2013-07-07 08:03:00,
2013-07-07 00:44:00,50.0,-99.9,-100.00,SSW,197,0.0,1.0,-999,-99.99,,,-99.99,,2013-07-07 08:44:00,
2013-07-07 00:53:00,50.0,-99.9,-100.00,South,189,2.0,2.0,-999,-99.99,,,-99.99,,2013-07-07 08:53:00,
2013-07-07 01:02:00,50.0,-99.9,-100.00,SE,125,1.0,-1.0,-999,-99.99,,,-99.99,,2013-07-07 09:02:00,
2013-07-07 01:34:00,50.0,-99.9,-100.00,South,173,0.0,0.0,-999,-99.99,,,-99.99,,2013-07-07 09:34:00,
2013-07-07 01:43:00,50.0,-99.9,-100.00,South,173,0.0,0.0,-999,-99.99,,,-99.99,,2013-07-07 09:43:00,
2013-07-07 01:53:00,50.0,-99.9,-100.00,SSE,155,0.0,0.0,-999,-99.99,,,-99.99,,2013-07-07 09:53:00,
2013-07-07 02:03:00,50.0,-99.9,-100.00,North,-999,0.0,1.0,-999,-99.99,,,-99.99,,2013-07-07 10:03:00,
2013-07-07 02:32:00,50.0,-99.9,-100.00,North,356,1.0,1.0,-999,-99.99,,,-99.99,,2013-07-07 10:32:00,
2013-07-07 02:44:00,50.0,-99.9,-100.00,NNW,344,2.0,2.0,-999,-99.99,,,-99.99,,2013-07-07 10:44:00,
2013-07-07 02:52:00,50.0,-99.9,-100.00,NNW,347,1.0,1.0,-999,-99.99,,,-99.99,,2013-07-07 10:52:00,
2013-07-07 03:02:00,50.0,-99.9,-100.00,NNE,31,0.0,0.0,-999,-99.99,,,-99.99,,2013-07-07 11:02:00,
2013-07-07 03:34:00,50.0,-99.9,-100.00,NE,45,2.0,2.0,-999,-99.99,,,-99.99,,2013-07-07 11:34:00,
2013-07-07 03:43:00,49.0,-99.9,-100.00,NE,40,3.0,3.0,-999,-99.99,,,-99.99,,2013-07-07 11:43:00,
2013-07-07 03:53:00,50.0,-99.9,-100.00,NE,39,2.0,2.0,-999,-99.99,,,-99.99,,2013-07-07 11:53:00,
2013-07-07 04:02:00,50.0,-99.9,-100.00,NE,40,1.0,1.0,-999,-99.99,,,-99.99,,2013-07-07 12:02:00,
2013-07-07 04:43:00,49.0,-99.9,-100.00,SSE,159,2.0,-1.0,-999,-99.99,,,-99.99,,2013-07-07 12:43:00,
2013-07-07 04:52:00,49.0,-99.9,-100.00,SSE,149,0.0,0.0,-999,-99.99,,,-99.99,,2013-07-07 12:52:00,
2013-07-07 05:12:00,49.0,-99.9,-100.00,NW,324,0.0,1.0,-999,-99.99,,,-99.99,,2013-07-07 13:12:00,
2013-07-07 06:02:00,50.0,-99.9,-100.00,North,-999,0.0,0.0,-999,-99.99,,,-99.99,,2013-07-07 14:02:00,
2013-07-07 06:34:00,50.0,-99.9,-100.00,SW,220,0.0,0.0,-999,-99.99,,,-99.99,,2013-07-07 14:34:00,
2013-07-07 06:43:00,50.0,-99.9,-100.00,South,173,0.0,0.0,-999,-99.99,,,-99.99,,2013-07-07 14:43:00,
2013-07-07 07:02:00,50.0,-99.9,-100.00,SSE,165,0.0,0.0,-999,-99.99,,,-99.99,,2013-07-07 15:02:00,
2013-07-07 07:34:00,50.0,-99.9,-100.00,SSE,166,0.0,0.0,-999,-99.99,,,-99.99,,2013-07-07 15:34:00,
2013-07-07 07:43:00,50.0,-99.9,-100.00,SSE,166,0.0,0.0,-999,-99.99,,,-99.99,,2013-07-07 15:43:00,
2013-07-07 08:02:00,50.0,-99.9,-100.00,South,178,0.0,0.0,-999,-99.99,,,-99.99,,2013-07-07 16:02:00,
2013-07-07 08:34:00,50.0,-99.9,-100.00,SSE,166,2.0,2.0,-999,-99.99,,,-99.99,,2013-07-07 16:34:00,
2013-07-07 08:43:00,50.0,-99.9,-100.00,South,172,2.0,2.0,-999,-99.99,,,-99.99,,2013-07-07 16:43:00,
2013-07-07 09:02:00,51.0,-99.9,-100.00,SSE,157,1.0,1.0,-999,-99.99,,,-99.99,,2013-07-07 17:02:00,
2013-07-07 09:34:00,51.0,-99.9,-100.00,SSE,154,2.0,3.0,-999,-99.99,,,-99.99,,2013-07-07 17:34:00,
2013-07-07 09:43:00,52.0,-99.9,-100.00,SE,127,1.0,1.0,-999,-99.99,,,-99.99,,2013-07-07 17:43:00,
2013-07-07 09:53:00,52.0,-99.9,-100.00,South,186,1.0,1.0,-999,-99.99,,,-99.99,,2013-07-07 17:53:00,
2013-07-07 10:02:00,52.0,-99.9,-100.00,ESE,102,1.0,1.0,-999,-99.99,,,-99.99,,2013-07-07 18:02:00,
2013-07-07 10:22:00,52.0,-99.9,-100.00,SE,145,0.0,1.0,-999,-99.99,,,-99.99,,2013-07-07 18:22:00,
2013-07-07 10:33:00,53.0,-99.9,-100.00,South,191,1.0,2.0,-999,-99.99,,,-99.99,,2013-07-07 18:33:00,
2013-07-07 10:43:00,52.0,-99.9,-100.00,SSE,154,4.0,4.0,-999,-99.99,,,-99.99,,2013-07-07 18:43:00,
2013-07-07 10:53:00,52.0,-99.9,-100.00,South,177,2.0,4.0,-999,-99.99,,,-99.99,,2013-07-07 18:53:00,
2013-07-07 11:01:00,52.0,-99.9,-100.00,SSE,149,6.0,6.0,-999,-99.99,,,-99.99,,2013-07-07 19:01:00,
2013-07-07 11:11:00,52.0,-99.9,-100.00,SE,143,5.0,5.0,-999,-99.99,,,-99.99,,2013-07-07 19:11:00,
2013-07-07 11:34:00,53.0,-99.9,-100.00,South,171,4.0,8.0,-999,-99.99,,,-99.99,,2013-07-07 19:34:00,
2013-07-07 11:43:00,53.0,-99.9,-100.00,South,170,6.0,8.0,-999,-99.99,,,-99.99,,2013-07-07 19:43:00,
2013-07-07 11:54:00,53.0,-99.9,-100.00,SSE,151,7.0,8.0,-999,-99.99,,,-99.99,,2013-07-07 19:54:00,
2013-07-07 12:02:00,53.0,-99.9,-100.00,SSE,160,8.0,8.0,-999,-99.99,,,-99.99,,2013-07-07 20:02:00,
2013-07-07 12:42:00,53.0,-99.9,-100.00,SE,146,10.0,10.0,-999,-99.99,,,-99.99,,2013-07-07 20:42:00,
2013-07-07 12:53:00,53.0,-99.9,-100.00,SSE,160,8.0,9.0,-999,-99.99,,,-99.99,,2013-07-07 20:53:00,
2013-07-07 13:02:00,53.0,-99.9,-100.00,South,169,7.0,-1.0,-999,-99.99,,,-99.99,,2013-07-07 21:02:00,
2013-07-07 13:44:00,54.0,-99.9,-100.00,South,172,8.0,8.0,-999,-99.99,,,-99.99,,2013-07-07 21:44:00,
2013-07-07 13:53:00,54.0,-99.9,-100.00,SSE,157,8.0,9.0,-999,-99.99,,,-99.99,,2013-07-07 21:53:00,
2013-07-07 14:02:00,54.0,-99.9,-100.00,SSE,155,11.0,11.0,-999,-99.99,,,-99.99,,2013-07-07 22:02:00,
2013-07-07 14:44:00,55.0,-99.9,-100.00,SSE,154,11.0,11.0,-999,-99.99,,,-99.99,,2013-07-07 22:44:00,
2013-07-07 15:43:00,55.0,-99.9,-100.00,SSE,149,13.0,13.0,-999,-99.99,,,-99.99,,2013-07-07 23:43:00,
2013-07-07 15:53:00,55.0,-99.9,-100.00,SE,141,7.0,11.0,-999,-99.99,,,-99.99,,2013-07-07 23:53:00,
2013-07-07 16:12:00,55.0,-99.9,-100.00,ESE,117,10.0,14.0,-999,-99.99,,,-99.99,,2013-07-08 00:12:00,
2013-07-07 16:33:00,55.0,-99.9,-100.00,SSE,159,9.0,9.0,-999,-99.99,,,-99.99,,2013-07-08 00:33:00,
2013-07-07 16:43:00,55.0,-99.9,-100.00,South,184,5.0,14.0,-999,-99.99,,,-99.99,,2013-07-08 00:43:00,
2013-07-07 16:53:00,55.0,-99.9,-100.00,SSE,165,10.0,13.0,-999,-99.99,,,-99.99,,2013-07-08 00:53:00,
2013-07-07 17:01:00,55.0,-99.9,-100.00,SSE,159,12.0,-1.0,-999,-99.99,,,-99.99,,2013-07-08 01:01:00,
2013-07-07 17:43:00,56.0,-99.9,-100.00,SSE,161,6.0,8.0,-999,-99.99,,,-99.99,,2013-07-08 01:43:00,
2013-07-07 17:53:00,56.0,-99.9,-100.00,SSE,161,12.0,12.0,-999,-99.99,,,-99.99,,2013-07-08 01:53:00,
2013-07-07 18:03:00,55.0,-99.9,-100.00,SE,131,14.0,17.0,-999,-99.99,,,-99.99,,2013-07-08 02:03:00,
2013-07-07 18:22:00,55.0,-99.9,-100.00,SE,145,12.0,12.0,-999,-99.99,,,-99.99,,2013-07-08 02:22:00,
2013-07-07 18:34:00,55.0,-99.9,-100.00,SE,130,9.0,13.0,-999,-99.99,,,-99.99,,2013-07-08 02:34:00,
2013-07-07 18:43:00,55.0,-99.9,-100.00,SE,141,11.0,12.0,-999,-99.99,,,-99.99,,2013-07-08 02:43:00,
2013-07-07 19:02:00,55.0,-99.9,-100.00,SE,132,10.0,15.0,-999,-99.99,,,-99.99,,2013-07-08 03:02:00,
2013-07-07 19:43:00,55.0,-99.9,-100.00,SE,144,10.0,11.0,-999,-99.99,,,-99.99,,2013-07-08 03:43:00,
2013-07-07 20:02:00,55.0,-99.9,-100.00,SSE,154,9.0,9.0,-999,-99.99,,,-99.99,,2013-07-08 04:02:00,
2013-07-07 20:22:00,54.0,-99.9,-100.00,SE,131,5.0,8.0,-999,-99.99,,,-99.99,,2013-07-08 04:22:00,
2013-07-07 20:43:00,54.0,-99.9,-100.00,SE,126,5.0,6.0,-999,-99.99,,,-99.99,,2013-07-08 04:43:00,
2013-07-07 20:53:00,55.0,-99.9,-100.00,SE,126,6.0,11.0,-999,-99.99,,,-99.99,,2013-07-08 04:53:00,
2013-07-07 21:02:00,55.0,-99.9,-100.00,East,83,4.0,7.0,-999,-99.99,,,-99.99,,2013-07-08 05:02:00,
2013-07-07 21:12:00,54.0,-99.9,-100.00,SE,141,3.0,6.0,-999,-99.99,,,-99.99,,2013-07-08 05:12:00,
2013-07-07 21:34:00,55.0,-99.9,-100.00,SSE,152,14.0,17.0,-999,-99.99,,,-99.99,,2013-07-08 05:34:00,
2013-07-07 21:43:00,55.0,-99.9,-100.00,SSE,151,13.0,-1.0,-999,-99.99,,,-99.99,,2013-07-08 05:43:00,
2013-07-07 21:53:00,55.0,-99.9,-100.00,SE,140,14.0,14.0,-999,-99.99,,,-99.99,,2013-07-08 05:53:00,
2013-07-07 22:01:00,55.0,-99.9,-100.00,SE,143,16.0,16.0,-999,-99.99,,,-99.99,,2013-07-08 06:01:00,
2013-07-07 22:34:00,53.0,-99.9,-100.00,SE,137,9.0,14.0,-999,-99.99,,,-99.99,,2013-07-08 06:34:00,
2013-07-07 22:43:00,53.0,-99.9,-100.00,SSE,152,21.0,-1.0,-999,-99.99,,,-99.99,,2013-07-08 06:43:00,
2013-07-07 22:53:00,53.0,-99.9,-100.00,SSE,163,17.0,20.0,-999,-99.99,,,-99.99,,2013-07-08 06:53:00,
2013-07-07 23:02:00,52.0,-99.9,-100.00,SE,141,16.0,-1.0,-999,-99.99,,,-99.99,,2013-07-08 07:02:00,
2013-07-07 23:34:00,51.0,-99.9,-100.00,SE,138,18.0,22.0,-999,-99.99,,,-99.99,,2013-07-08 07:34:00,
2013-07-07 23:44:00,51.0,-99.9,-100.00,SSE,150,22.0,22.0,-999,-99.99,,,-99.99,,2013-07-08 07:44:00,
2013-07-07 23:53:00,51.0,-99.9,-100.00,SSE,149,18.0,23.0,-999,-99.99,,,-99.99,,2013-07-08 07:53:00,